Indianapolis, IN

1:32 PM EDT on May 28, 2017 (GMT -0400)
Indianapolis International

Weather History for KIND - December, 2012

Change the Weather History Date:

Sunday, December 30, 2012

  Actual Average Record
Temperature  
Mean Temperature 20 °F 29 °F  
Max Temperature 29 °F 36 °F 67 °F (1965)
Min Temperature 11 °F 21 °F -14 °F (1983)
Degree Days  
Heating Degree Days 45 36  
Month to date heating degree days 783 997  
Since 1 July heating degree days 1946 2039  
Cooling Degree Days 0 0  
Month to date cooling degree days 0 0  
Year to date cooling degree days 1534 1066  
Moisture  
Dew Point 16 °F    
Average Humidity 82    
Maximum Humidity 96    
Minimum Humidity 68    
Precipitation  
Precipitation 0.00 in 0.10 in 1.94 in (1936)
Month to date precipitation 2.53 3.07  
Year to date precipitation 37.95 42.34  
Snow  
Snow 0.00 in 0.30 in 10.00 in (1895)
Month to date snowfall 14.0 6.6  
Since 1 July snowfall 14.2 7.7  
Snow Depth 8.00 in    
Sea Level Pressure  
Sea Level Pressure 30.37 in    
Wind  
Wind Speed 9 mph (SW)    
Max Wind Speed 17 mph    
Max Gust Speed 20 mph    
Visibility 9 miles    
Events      
T = Trace of Precipitation, MM = Missing Value Source: NWS Daily Summary

Daily Weather History Graph

Daily Weather History Graph

Search for Another Location

Airport or City:

Trip Planner

Search our weather history database for the weather conditions in past years. The results will help you decide how hot, cold, wet, or windy it might be!

Date:

Astronomy

Dec. 30, 2012 Rise Set
Actual Time 8:05 AM EST 5:30 PM EST
Civil Twilight 7:35 AM EST 6:00 PM EST
Nautical Twilight 7:01 AM EST 6:34 PM EST
Astronomical Twilight 6:29 AM EST 7:07 PM EST
Moon 8:00 PM EST (12/30) 9:15 AM EST (12/30)
Length of Visible Light 10h 24m
Length of Day
9h 24m
Waning Gibbous, 95% of the Moon is Illuminated
Dec 30
Waning Gibbous
Jan 4
Last Quarter
Jan 11
New
Jan 18
First Quarter
Jan 26
Full

Hourly Weather History & Observations

Time (EST) Temp. Windchill Dew Point Humidity Pressure Visibility Wind Dir Wind Speed Gust Speed Precip Events Conditions
12:54 AM 21.9 °F 10.4 °F 17.1 °F 82% 30.28 in 10.0 mi WNW 11.5 mph - N/A   Overcast
1:54 AM 21.9 °F 11.0 °F 18.0 °F 85% 30.29 in 10.0 mi West 10.4 mph - N/A   Overcast
2:06 AM 21.2 °F 8.9 °F 17.6 °F 86% 30.26 in 10.0 mi West 12.7 mph - N/A   Overcast
2:54 AM 21.0 °F 7.6 °F 16.0 °F 81% 30.32 in 10.0 mi West 15.0 mph - N/A   Overcast
3:54 AM 19.9 °F 8.6 °F 15.1 °F 81% 30.35 in 10.0 mi West 10.4 mph - N/A   Overcast
4:54 AM 19.0 °F 8.2 °F 15.1 °F 85% 30.36 in 10.0 mi West 9.2 mph - N/A   Overcast
5:39 AM 15.8 °F 5.1 °F 12.2 °F 86% 30.34 in 10.0 mi West 8.1 mph - N/A   Scattered Clouds
5:54 AM 15.1 °F 3.3 °F 12.0 °F 88% 30.39 in 9.0 mi WSW 9.2 mph - N/A   Partly Cloudy
6:54 AM 12.9 °F 1.6 °F 10.9 °F 92% 30.41 in 7.0 mi WSW 8.1 mph - N/A   Clear
7:54 AM 12.0 °F 0.5 °F 10.0 °F 92% 30.43 in 6.0 mi SSW 8.1 mph - N/A   Clear
8:54 AM 12.0 °F 2.7 °F 10.9 °F 95% 30.42 in 5.0 mi South 5.8 mph - N/A   Clear
9:54 AM 14.0 °F 6.5 °F 12.0 °F 92% 30.45 in 6.0 mi SSW 4.6 mph - N/A   Clear
10:54 AM 18.0 °F 8.7 °F 14.0 °F 84% 30.46 in 6.0 mi SSW 6.9 mph - N/A   Clear
11:54 AM 21.0 °F 12.4 °F 16.0 °F 81% 30.45 in 9.0 mi South 6.9 mph - N/A   Partly Cloudy
12:54 PM 25.0 °F 18.1 °F 18.0 °F 75% 30.43 in 9.0 mi WSW 5.8 mph - N/A   Scattered Clouds
1:54 PM 27.0 °F 19.5 °F 19.0 °F 72% 30.41 in 10.0 mi SW 6.9 mph - N/A   Mostly Cloudy
2:54 PM 28.0 °F 20.8 °F 19.9 °F 72% 30.38 in 10.0 mi SSW 6.9 mph - N/A   Overcast
3:54 PM 28.0 °F 19.3 °F 19.9 °F 72% 30.38 in 10.0 mi WSW 9.2 mph - N/A   Overcast
4:54 PM 26.1 °F 17.6 °F 18.0 °F 71% 30.38 in 10.0 mi SSW 8.1 mph - N/A   Overcast
5:54 PM 27.0 °F 17.3 °F 18.0 °F 69% 30.38 in 10.0 mi SSW 10.4 mph - N/A   Overcast
6:54 PM 26.1 °F 15.0 °F 18.0 °F 71% 30.41 in 10.0 mi SW 12.7 mph - N/A   Overcast
7:54 PM 26.1 °F 16.8 °F 19.0 °F 75% 30.37 in 10.0 mi South 9.2 mph - N/A   Overcast
8:54 PM 25.0 °F 15.5 °F 19.0 °F 78% 30.36 in 10.0 mi South 9.2 mph - N/A   Overcast
9:54 PM 24.1 °F 13.7 °F 18.0 °F 77% 30.34 in 10.0 mi South 10.4 mph - N/A   Mostly Cloudy
10:54 PM 25.0 °F 14.2 °F 19.9 °F 81% 30.33 in 9.0 mi South 11.5 mph - N/A   Overcast
11:54 PM 26.1 °F 16.2 °F 21.0 °F 81% 30.31 in 9.0 mi SSW 10.4 mph - N/A   Overcast